Hourly Data Report for February 23, 2005

TORONTO CITY
ONTARIO

43°40'00.000" N
79°24'00.000" W
112.50 m
6158355
71508
XTO

Download Data

Hourly Data (February 2005)
Hourly Data Report for February 23, 2005
TIME
LST
Temp Definition
°C
Dew Point Definition
°C
Rel Hum Definition
%
Precip. Amount Definition
mm

Wind Dir Definition
10's deg

Wind Spd Definition
km/h
Visibility Definition
km
Stn Press Definition
kPa
Hmdx Definition


Wind Chill Definition


Weather Definition


00:00 -4.3 -8.1 75   LegendMM LegendMM   100.76     LegendNANA
01:00 -5.0 -8.2 78   LegendMM LegendMM   100.81     LegendNANA
02:00 -5.5 -8.6 79   LegendMM LegendMM   100.86     LegendNANA
03:00 -6.6 -8.9 84   LegendMM LegendMM   100.91     LegendNANA
04:00 -7.1 -9.3 84   LegendMM LegendMM   100.95     LegendNANA
05:00 -7.6 -10.7 78   LegendMM LegendMM   101.02     LegendNANA
06:00 -8.1 -11.7 75   LegendMM LegendMM   101.09     LegendNANA
07:00 -8.8 -12.6 74   LegendMM LegendMM   101.13     LegendNANA
08:00 -8.7 -13.0 71   LegendMM LegendMM   101.22     LegendNANA
09:00 -6.8 -12.5 64   LegendMM LegendMM   101.24     LegendNANA
10:00 -6.1 -12.1 62   LegendMM LegendMM   101.22     LegendNANA
11:00 -4.7 -11.4 59   LegendMM LegendMM   101.24     LegendNANA
12:00 -4.8 -12.5 55   LegendMM LegendMM   101.23     LegendNANA
13:00 -3.5 -11.6 53   LegendMM LegendMM   101.14     LegendNANA
14:00 -2.7 -10.8 54   LegendMM LegendMM   101.10     LegendNANA
15:00 -3.7 -11.0 57   LegendMM LegendMM   101.09     LegendNANA
16:00 -3.7 -11.4 55   LegendMM LegendMM   101.13     LegendNANA
17:00 -3.7 -11.9 53   LegendMM LegendMM   101.12     LegendNANA
18:00 -4.3 -10.9 60   LegendMM LegendMM   101.12     LegendNANA
19:00 -5.0 -10.9 63   LegendMM LegendMM   101.20     LegendNANA
20:00 -6.4 -11.6 67   LegendMM LegendMM   101.24     LegendNANA
21:00 -7.4 -11.9 70   LegendMM LegendMM   101.29     LegendNANA
22:00 -7.7 -12.1 71   LegendMM LegendMM   101.33     LegendNANA
23:00 -8.3 -12.9 69   LegendMM LegendMM   101.34     LegendNANA

Notes on Data Quality.

Legend

  • E = Estimated
  • M = Missing
  • NA = Not Available*
  • [empty] = Indicates an unobserved value
Date modified: